ORBCOMM FM109 [+]

Last updated on July 6, 2021, 3:36 p.m. UTC

1 40086U 14040A   21186.85260570 -.00000049  00000-0  27063-4 0  9994
2 40086  47.0054 324.7146 0002481 182.7079 177.3792 14.54891311370885
UTC
Height (km)
Latitude
Longitude
Inclination
Orbital Period
UTC large
Height (km)
Speed (km/s)
/
Latitude / Longitude
Inclination (degrees)
Orbital Period (minutes)
Azimuth
Elevation
Range (km)
Doppler Factor
iOS Compass Heading
iOS Angle